Starlink 31470

operational
NORAD ID: 59569 Int'l Des: 2024-076 Owner: SPXS Country: US Constellation: starlink
LEOCIRCULAR

About Starlink 31470

Description loading...

Live Position

Loading 3D Globe...

Upcoming Passes

Altitude History

Altitude vs Time

uPlot chart will show altitude changes over time

Two-Line Element Set

1 59569U 24076F 25305.60798148 -.00000055 00000-0 75306-5 0 9998
2 59569 43.0039 8.9366 0001120 280.2812 79.7914 15.27581870 86863
Epoch: Nov 1, 2025 • Age: 22 hours

Current Status

Altitude 489.1 km
Velocity 7.62 km/s
Sub-Earth Point -26.53°S, 103.86°E
Launch Date Apr 23, 2024
Age 1.5 years
Type internet

Technical Details

Classification Payload
Mass 730.00 kg
Dry Mass 700.00 kg
Total Mass 730.00 kg
Length 0.30 m
Diameter 4.10 m
Span 29.00 m
Shape Box + pan
Manufacturer SPXS
Bus Type Starlink V2M
Phase Status In Orbit
Owner/State SPXS/US

Large Constellations

Loading constellations...